Location: Marysville Observatory
(48.1092°N, 122.1645°W)
Time: 08:54:58
(UTC-07:00)

Amateur Radio Satellites - All Passes

Search period start: 01 August 2014 08:24
Search period end: 02 August 2014 08:24
Location: Marysville Observatory, 48.1092°N, 122.1645°W

Satellite Date Start Highest point End Downlink Frequencies (MHz)
Time Altitude Azimuth
HO-68 01 Aug 08:54:22 08:59:07 19° 88° (E) 09:03:50 435.675 MHz FM
PCSat 01 Aug 08:54:23 08:59:49 66° 53° (NE) 09:05:12 145.825 MHz
KITSAT 1 01 Aug 08:58:53 09:05:52 31° 333° (NNW) 09:12:53 435.175 FM
Saudisat 1A 01 Aug 08:59:51 09:03:44 29° 322° (NW) 09:07:37 436.775 MHz
UKube-1 01 Aug 09:19:08 09:20:54 12° 88° (E) 09:22:40 145.840 MHz, 145.915 MHz
SO-67 01 Aug 09:30:16 09:32:46 19° 294° (WNW) 09:35:15 435.3500 MHz FM
Oscar 11 01 Aug 09:59:13 10:02:13 18° 91° (E) 10:05:12 145.825 FM, Beacon 2401.500 USB
Sapphire 01 Aug 10:04:54 10:10:01 43° 245° (WSW) 10:15:05 437.095 MHz 1200 baud AX-25 AFSK
JAS-2 01 Aug 10:05:36 10:06:53 11° 315° (NW) 10:08:08 435.800 - 435.900 CW/SSB, 435.910 FM
FUNcube-1 01 Aug 10:31:23 10:33:45 15° 90° (E) 10:36:06 145.950 - 145.970 MHz USB
PCSat 01 Aug 10:38:36 10:42:45 23° 252° (WSW) 10:46:53 145.825 MHz
HO-68 01 Aug 10:40:38 10:47:50 87° 108° (ESE) 10:54:59 435.675 MHz FM
Saudisat 1A 01 Aug 10:43:23 10:44:45 11° 345° (NNW) 10:46:07 436.775 MHz
UKube-1 01 Aug 10:53:18 10:57:41 78° 286° (WNW) 11:02:01 145.840 MHz, 145.915 MHz
KITSAT 1 01 Aug 10:58:14 11:04:13 22° 2° (N) 11:10:11 435.175 FM
SO-50 01 Aug 11:11:55 11:14:29 15° 110° (ESE) 11:17:04 436.795 FM
Oscar 11 01 Aug 11:34:29 11:38:43 52° 289° (WNW) 11:42:56 145.825 FM, Beacon 2401.500 USB
Oscar 16 01 Aug 11:49:40 11:51:01 11° 51° (NE) 11:52:22 437.025 USB, Beacon 2401.1428
FUNcube-1 01 Aug 12:06:25 12:10:34 61° 287° (WNW) 12:14:44 145.950 - 145.970 MHz USB
JAS-1B 01 Aug 12:15:09 12:21:17 19° 41° (NE) 12:27:28 435.800 - 435.900 CW/SSB
Saudisat 1A 01 Aug 12:25:45 12:26:23 10° 11° (N) 12:27:01 436.775 MHz
HO-68 01 Aug 12:29:18 12:34:44 24° 308° (NW) 12:40:10 435.675 MHz FM
UKube-1 01 Aug 12:31:53 12:33:09 11° 305° (NW) 12:34:24 145.840 MHz, 145.915 MHz
RS-15 01 Aug 12:32:54 12:42:40 38° 108° (ESE) 12:52:16 29.354 - 29.394 USB, Beacon 29.352 USB
Uribyol 2 01 Aug 12:35:32 12:38:08 14° 54° (NE) 12:40:43 436.500 FM
AO-27 01 Aug 12:37:17 12:39:55 14° 54° (NE) 12:42:34 436.795 MHz FM
AO-Echo 01 Aug 12:43:50 12:46:59 16° 56° (NE) 12:50:08 ?
SO-50 01 Aug 12:49:55 12:54:25 80° 309° (NW) 12:59:02 436.795 FM
UOSAT-12 01 Aug 12:52:33 12:54:19 12° 108° (ESE) 12:56:05 437.025 FM, 437.400 FM
KITSAT 1 01 Aug 12:55:07 13:02:23 34° 31° (NNE) 13:09:36 435.175 FM
Oscar 19 01 Aug 12:55:49 13:00:24 34° 65° (ENE) 13:05:01 437.125 CW, 437.150 USB
Gurwin Techsat 1B 01 Aug 13:21:05 13:23:57 15° 54° (NE) 13:26:50 435.225 FM
Oscar 16 01 Aug 13:24:20 13:29:22 61° 71° (ENE) 13:34:27 437.025 USB, Beacon 2401.1428
AO-7 01 Aug 13:40:22 13:44:46 16° 36° (NE) 13:49:10 29.400 - 29.500 MHz
ITAMSAT 1 01 Aug 13:53:19 13:58:22 52° 69° (ENE) 14:03:26 435.822 SSB
JAS-1B 01 Aug 14:00:36 14:09:39 56° 63° (ENE) 14:19:12 435.800 - 435.900 CW/SSB
Saudisat 1A 01 Aug 14:03:56 14:07:33 24° 34° (NE) 14:11:09 436.775 MHz
Uribyol 2 01 Aug 14:11:36 14:16:47 78° 73° (ENE) 14:22:00 436.500 FM
AO-27 01 Aug 14:13:24 14:18:37 78° 73° (ENE) 14:23:51 436.795 MHz FM
AO-Echo 01 Aug 14:19:41 14:25:02 87° 75° (ENE) 14:30:21 ?
UOSAT-12 01 Aug 14:29:02 14:33:40 81° 126° (SE) 14:38:24 437.025 FM, 437.400 FM
TMSAT-1 01 Aug 14:31:24 14:36:15 38° 66° (ENE) 14:41:07 436.925 FM
SO-50 01 Aug 14:32:22 14:35:43 20° 331° (NNW) 14:39:07 436.795 FM
Oscar 19 01 Aug 14:35:01 14:39:43 36° 263° (W) 14:44:28 437.125 CW, 437.150 USB
RS-15 01 Aug 14:43:10 14:54:14 74° 313° (NW) 15:05:13 29.354 - 29.394 USB, Beacon 29.352 USB
Uosat F 01 Aug 14:44:55 14:47:29 14° 54° (NE) 14:50:03 435.120 FM
KITSAT 1 01 Aug 14:50:38 14:58:46 87° 236° (SW) 15:06:50 435.175 FM
Gurwin Techsat 1B 01 Aug 14:57:48 15:03:07 81° 73° (ENE) 15:08:28 435.225 FM
Oscar 16 01 Aug 15:05:26 15:09:09 20° 269° (W) 15:12:55 437.025 USB, Beacon 2401.1428
AO-7 01 Aug 15:27:44 15:35:38 49° 59° (ENE) 15:43:34 29.400 - 29.500 MHz
ITAMSAT 1 01 Aug 15:33:58 15:38:10 24° 267° (W) 15:42:22 435.822 SSB
Saudisat 1A 01 Aug 15:43:10 15:47:34 69° 235° (SW) 15:51:56 436.775 MHz
JAS-1B 01 Aug 15:51:19 16:00:11 49° 265° (W) 16:09:45 435.800 - 435.900 CW/SSB
Uribyol 2 01 Aug 15:53:44 15:56:53 16° 271° (W) 16:00:02 436.500 FM
AO-27 01 Aug 15:55:33 15:58:45 16° 271° (W) 16:01:57 436.795 MHz FM
AO-Echo 01 Aug 16:01:33 16:04:28 15° 273° (W) 16:07:25 ?
UOSAT-12 01 Aug 16:10:36 16:14:23 24° 328° (NNW) 16:18:12 437.025 FM, 437.400 FM
TMSAT-1 01 Aug 16:11:23 16:16:12 35° 264° (W) 16:21:03 436.925 FM
SO-50 01 Aug 16:17:11 16:18:06 11° 356° (N) 16:19:02 436.795 FM
Uosat F 01 Aug 16:20:27 16:25:30 81° 73° (ENE) 16:30:35 435.120 FM
Gurwin Techsat 1B 01 Aug 16:40:34 16:43:44 16° 272° (W) 16:46:56 435.225 FM
KITSAT 1 01 Aug 16:47:18 16:53:05 22° 257° (WSW) 16:58:51 435.175 FM
JAS-2 01 Aug 16:48:10 16:53:53 25° 57° (ENE) 16:59:14 435.800 - 435.900 CW/SSB, 435.910 FM
RS-15 01 Aug 16:58:47 17:08:40 37° 343° (NNW) 17:18:38 29.354 - 29.394 USB, Beacon 29.352 USB
AO-7 01 Aug 17:20:31 17:28:29 47° 260° (W) 17:36:30 29.400 - 29.500 MHz
OPAL 01 Aug 17:22:41 17:27:45 63° 104° (ESE) 17:32:51 ?
Hamsat 01 Aug 17:43:04 17:47:01 42° 70° (ENE) 17:51:01 145.90 MHz
JAS-1B 01 Aug 17:51:16 17:53:19 11° 288° (WNW) 17:55:24 435.800 - 435.900 CW/SSB
UOSAT-12 01 Aug 17:54:45 17:56:15 11° 352° (N) 17:57:45 437.025 FM, 437.400 FM
SO-50 01 Aug 17:58:04 18:00:42 15° 21° (NNE) 18:03:22 436.795 FM
Uosat F 01 Aug 18:02:08 18:04:56 15° 272° (W) 18:07:44 435.120 FM
JAS-2 01 Aug 18:30:34 18:38:17 86° 255° (WSW) 18:45:19 435.800 - 435.900 CW/SSB, 435.910 FM
SO-67 01 Aug 18:33:45 18:36:26 21° 67° (ENE) 18:39:07 435.3500 MHz FM
OPAL 01 Aug 19:02:22 19:06:14 22° 303° (WNW) 19:10:06 ?
RS-15 01 Aug 19:14:48 19:24:43 37° 17° (NNE) 19:34:48 29.354 - 29.394 USB, Beacon 29.352 USB
Hamsat 01 Aug 19:20:01 19:23:11 21° 268° (W) 19:26:24 145.90 MHz
HO-68 01 Aug 19:27:18 19:32:42 24° 51° (NE) 19:38:06 435.675 MHz FM
UOSAT-12 01 Aug 19:36:09 19:38:29 13° 17° (NNE) 19:40:48 437.025 FM, 437.400 FM
SO-50 01 Aug 19:37:55 19:42:27 44° 43° (NE) 19:47:03 436.795 FM
STRAND 1 01 Aug 19:52:36 19:57:40 59° 101° (ESE) 20:02:40 ?
SO-67 01 Aug 20:06:19 20:09:22 29° 264° (W) 20:12:27 435.3500 MHz FM
UKube-1 01 Aug 20:17:40 20:20:43 19° 60° (ENE) 20:23:46 145.840 MHz, 145.915 MHz
JAS-2 01 Aug 20:18:53 20:24:05 20° 273° (W) 20:29:02 435.800 - 435.900 CW/SSB, 435.910 FM
MaSat-1 01 Aug 20:21:22 20:25:06 29° 107° (ESE) 20:29:17 437.345 MHz
Oscar 11 01 Aug 20:57:47 21:01:10 23° 64° (ENE) 21:04:34 145.825 FM, Beacon 2401.500 USB
HO-68 01 Aug 21:12:24 21:19:35 89° 252° (WSW) 21:26:48 435.675 MHz FM
UOSAT-12 01 Aug 21:15:38 21:20:00 35° 40° (NE) 21:24:20 437.025 FM, 437.400 FM
SO-50 01 Aug 21:18:41 21:22:57 33° 242° (WSW) 21:27:15 436.795 FM
RS-15 01 Aug 21:28:08 21:39:10 74° 47° (NE) 21:50:33 29.354 - 29.394 USB, Beacon 29.352 USB
FUNcube-1 01 Aug 21:31:24 21:34:27 20° 63° (ENE) 21:37:29 145.950 - 145.970 MHz USB
STRAND 1 01 Aug 21:32:32 21:36:28 23° 300° (WNW) 21:40:23 ?
Oscar 10/S400 01 Aug 21:38:33 21:58:03 41° 152° (SSE) 23:20:54 145.825 - 145.975 CW/USB, Beacon 145.810 USB
UKube-1 01 Aug 21:52:14 21:56:32 56° 259° (WSW) 22:00:52 145.840 MHz, 145.915 MHz
MaSat-1 01 Aug 21:57:59 22:02:13 42° 309° (NW) 22:06:59 437.345 MHz
Oscar 11 01 Aug 22:33:03 22:37:08 42° 262° (W) 22:41:16 145.825 FM, Beacon 2401.500 USB
UOSAT-12 01 Aug 22:55:47 23:00:17 44° 240° (WSW) 23:04:43 437.025 FM, 437.400 FM
ISS 01 Aug 22:58:47 23:01:56 40° 147° (SSE) 23:05:06 145.800 FM
HO-68 01 Aug 23:03:25 23:08:16 19° 272° (W) 23:13:08 435.675 MHz FM
FUNcube-1 01 Aug 23:06:27 23:10:34 48° 261° (W) 23:14:39 145.950 - 145.970 MHz USB
Sapphire 01 Aug 23:09:36 23:12:25 14° 104° (ESE) 23:15:14 437.095 MHz 1200 baud AX-25 AFSK
MaSat-1 01 Aug 23:39:07 23:40:59 12° 332° (NNW) 23:42:53 437.345 MHz
PCSat 01 Aug 23:40:26 23:44:58 28° 110° (ESE) 23:49:31 145.825 MHz
RS-15 01 Aug 23:41:02 23:50:47 39° 251° (WSW) 00:00:52 29.354 - 29.394 USB, Beacon 29.352 USB
ISS 02 Aug 00:35:18 00:38:36 57° 346° (NNW) 00:41:56 145.800 FM
Sapphire 02 Aug 00:49:36 00:55:01 85° 123° (ESE) 01:00:28 437.095 MHz 1200 baud AX-25 AFSK
PCSat 02 Aug 01:22:46 01:28:05 55° 310° (NW) 01:33:26 145.825 MHz
Oscar 16 02 Aug 01:33:32 01:36:46 17° 89° (E) 01:40:00 437.025 USB, Beacon 2401.1428
JAS-1B 02 Aug 01:46:14 01:50:02 13° 74° (ENE) 01:53:37 435.800 - 435.900 CW/SSB
ITAMSAT 1 02 Aug 02:04:12 02:06:47 14° 87° (E) 02:09:23 435.822 SSB
ISS 02 Aug 02:12:24 02:15:39 45° 6° (N) 02:18:55 145.800 FM
Uribyol 2 02 Aug 02:21:32 02:25:23 21° 91° (E) 02:29:14 436.500 FM
AO-27 02 Aug 02:23:39 02:27:32 21° 91° (E) 02:31:24 436.795 MHz FM
AO-Echo 02 Aug 02:24:27 02:28:18 22° 91° (E) 02:32:02 ?
Sapphire 02 Aug 02:34:46 02:39:07 24° 324° (NW) 02:43:30 437.095 MHz 1200 baud AX-25 AFSK
Oscar 19 02 Aug 02:42:18 02:47:27 61° 101° (ESE) 02:52:34 437.125 CW, 437.150 USB
TMSAT-1 02 Aug 02:46:16 02:47:17 11° 84° (E) 02:48:18 436.925 FM
OPAL 02 Aug 03:03:48 03:07:52 26° 59° (ENE) 03:11:58 ?
PCSat 02 Aug 03:09:16 03:12:44 17° 333° (NNW) 03:16:12 145.825 MHz
Gurwin Techsat 1B 02 Aug 03:10:58 03:15:17 25° 92° (E) 03:19:34 435.225 FM
Oscar 16 02 Aug 03:11:32 03:16:43 76° 287° (WNW) 03:21:53 437.025 USB, Beacon 2401.1428
JAS-1B 02 Aug 03:33:42 03:42:56 59° 98° (E) 03:50:44 435.800 - 435.900 CW/SSB
ITAMSAT 1 02 Aug 03:41:48 03:47:01 88° 286° (WNW) 03:52:11 435.822 SSB
ISS 02 Aug 03:49:11 03:52:33 78° 205° (SSW) 03:55:55 145.800 FM
Uribyol 2 02 Aug 04:00:11 04:05:17 60° 290° (WNW) 04:10:20 436.500 FM
AO-27 02 Aug 04:02:21 04:07:28 60° 290° (WNW) 04:12:32 436.795 MHz FM
AO-Echo 02 Aug 04:02:31 04:07:27 54° 290° (WNW) 04:12:12 ?
Oscar 19 02 Aug 04:22:26 04:26:24 23° 300° (WNW) 04:30:21 437.125 CW, 437.150 USB
TMSAT-1 02 Aug 04:22:50 04:28:09 73° 103° (ESE) 04:33:26 436.925 FM
Sapphire 02 Aug 04:23:20 04:24:39 11° 350° (N) 04:25:58 437.095 MHz 1200 baud AX-25 AFSK
Uosat F 02 Aug 04:25:33 04:29:05 19° 91° (E) 04:32:35 435.120 FM
MaSat-1 02 Aug 04:35:30 04:40:00 27° 44° (NE) 04:44:22 437.345 MHz
OPAL 02 Aug 04:41:45 04:46:31 48° 258° (WSW) 04:51:21 ?
Gurwin Techsat 1B 02 Aug 04:50:24 04:55:34 53° 291° (WNW) 05:00:42 435.225 FM
Oscar 16 02 Aug 04:52:46 04:55:14 14° 306° (NW) 04:57:41 437.025 USB, Beacon 2401.1428
AO-7 02 Aug 05:17:24 05:25:29 51° 101° (E) 05:33:29 29.400 - 29.500 MHz
ITAMSAT 1 02 Aug 05:22:48 05:25:48 16° 305° (NW) 05:28:47 435.822 SSB
KITSAT 1 02 Aug 05:22:54 05:30:16 40° 111° (ESE) 05:37:39 435.175 FM
JAS-1B 02 Aug 05:24:28 05:33:04 42° 302° (WNW) 05:40:35 435.800 - 435.900 CW/SSB
ISS 02 Aug 05:26:42 05:28:50 16° 223° (SW) 05:30:57 145.800 FM
STRAND 1 02 Aug 05:34:55 05:38:35 20° 58° (ENE) 05:42:16 ?
Uribyol 2 02 Aug 05:42:28 05:43:44 11° 309° (NW) 05:45:00 436.500 FM
AO-27 02 Aug 05:44:38 05:45:57 11° 310° (NW) 05:47:16 436.795 MHz FM
Saudisat 1A 02 Aug 05:55:27 05:57:22 13° 109° (ESE) 05:59:17 436.775 MHz
Uosat F 02 Aug 06:03:21 06:08:19 63° 289° (WNW) 06:13:15 435.120 FM
TMSAT-1 02 Aug 06:03:47 06:07:33 20° 302° (WNW) 06:11:17 436.925 FM
Sapphire 02 Aug 06:08:30 06:10:43 12° 17° (NNE) 06:12:55 437.095 MHz 1200 baud AX-25 AFSK
MaSat-1 02 Aug 06:12:31 06:17:46 64° 245° (WSW) 06:22:43 437.345 MHz
PCSat 02 Aug 06:41:08 06:44:29 16° 26° (NNE) 06:47:50 145.825 MHz
Hamsat 02 Aug 07:00:45 07:05:00 54° 100° (E) 07:09:16 145.90 MHz
AO-7 02 Aug 07:10:26 07:18:13 46° 302° (WNW) 07:25:58 29.400 - 29.500 MHz
STRAND 1 02 Aug 07:12:10 07:17:17 69° 257° (WSW) 07:22:26 ?
JAS-1B 02 Aug 07:16:41 07:20:56 14° 327° (NNW) 07:25:01 435.800 - 435.900 CW/SSB
KITSAT 1 02 Aug 07:17:24 07:25:24 61° 313° (NW) 07:33:27 435.175 FM
JAS-2 02 Aug 07:22:27 07:28:17 62° 101° (E) 07:33:32 435.800 - 435.900 CW/SSB, 435.910 FM
SO-67 02 Aug 07:27:13 07:29:22 15° 91° (E) 07:31:31 435.3500 MHz FM
Saudisat 1A 02 Aug 07:31:51 07:36:16 89° 128° (SE) 07:40:44 436.775 MHz
Uosat F 02 Aug 07:44:44 07:46:09 11° 309° (NW) 07:47:34 435.120 FM
Sapphire 02 Aug 07:51:04 07:55:56 32° 41° (NE) 08:00:46 437.095 MHz 1200 baud AX-25 AFSK
